This demonstration page uses our WeatherBlox Daily Observations layout. Learn more.

Left ArrowRight Arrow

Hourly Observations for December 12, 2015

Temp ( °F °C ) Dew Point ( °F °C ) Humidity (%) Winds ( mph kmh ) Pressure ( in mb ) Visibility ( mi km ) Precip ( " mm )
12:53 am 00:53 Clear 42 5.6 38 3.3 85 85 N 3 6 30.03 1017 8 13 0.00 0.00
1:53 am 01:53 Clear 42 5.6 38 3.3 85 85 NW 5 7 30.04 1017 10 16 0.00 0.00
2:53 am 02:53 Clear with Mist and Fog 38 3.3 34 1.1 86 86 Calm 30.06 1018 5 8 0.00 0.00
3:09 am 03:09 Clear with Mist and Fog 38 3.3 34 1.1 86 86 Calm 30.06 1018 2 3 0.00 0.00
3:21 am 03:21 Clear with Mist and Fog 38 3.3 34 1.1 86 86 Calm 30.06 1018 3 5 0.00 0.00
3:53 am 03:53 Hazy 38 3.3 33 0.6 83 83 Calm 30.05 1018 6 10 0.00 0.00
4:53 am 04:53 Clear 37 2.8 33 0.6 86 86 Calm 30.07 1018 7 11 0.00 0.00
5:53 am 05:53 Clear 35 1.7 32 0 89 89 Calm 30.07 1018 8 13 0.00 0.00
6:53 am 06:53 Clear 37 2.8 33 0.6 86 86 Calm 30.09 1019 10 16 0.00 0.00
7:53 am 07:53 Sunny 37 2.8 34 1.1 89 89 Calm 30.10 1019 10 16 0.00 0.00
8:53 am 08:53 Cloudy 40 4.4 37 2.8 89 89 Calm 30.11 1020 10 16 0.00 0.00
9:53 am 09:53 Cloudy 43 6.1 39 3.9 86 86 Calm 30.15 1021 10 16 0.00 0.00
10:53 am 10:53 Cloudy with Light Rain 45 7.2 41 5 86 86 ESE 3 6 30.14 1021 9 14 0.00 0.03
11:53 am 11:53 Cloudy with Light Rain 45 7.2 41 5 86 86 Calm 30.13 1020 8 13 0.02 0.51
12:38 pm 12:38 Cloudy with Light Rain 46 8 43 6 87 87 W 3 6 30.12 1020 7 11 0.00 0.00
12:53 pm 12:53 Cloudy 46 7.8 43 6.1 89 89 Calm 30.13 1020 7 11 0.01 0.25
1:53 pm 13:53 Cloudy 47 8.3 43 6.1 86 86 Calm 30.11 1020 9 14 0.01 0.25
2:53 pm 14:53 Cloudy 48 8.9 44 6.7 86 86 NE 3 6 30.11 1020 10 16 0.00 0.00
3:53 pm 15:53 Cloudy 48 8.9 44 6.7 86 86 Calm 30.11 1020 9 14 0.00 0.03
4:01 pm 16:01 Cloudy 48 8.9 44 6.7 86 86 W 6 9 30.12 1020 10 16 0.00 0.00
4:26 pm 16:26 Cloudy 46 8 43 6 87 87 Calm 30.12 1020 10 16 0.00 0.00
4:53 pm 16:53 Cloudy 47 8.3 42 5.6 83 83 Calm 30.11 1020 10 16 0.00 0.00
5:10 pm 17:10 Cloudy 46 8 43 6 87 87 Calm 30.12 1020 10 16 0.00 0.00
5:17 pm 17:17 Cloudy with Light Rain 47 8.3 42 5.6 83 83 Calm 30.12 1020 9 14 0.00 0.03
5:45 pm 17:45 Cloudy 47 8.3 42 5.6 83 83 SSE 3 6 30.12 1020 10 16 0.00 0.03
5:53 pm 17:53 Cloudy 47 8.3 42 5.6 83 83 Calm 30.11 1020 10 16 0.00 0.03
6:04 pm 18:04 Cloudy with Light Rain 46 8 43 6 87 87 SSE 3 6 30.09 1019 10 16 0.00 0.00
6:11 pm 18:11 Cloudy 47 8.3 43 6.1 86 86 S 3 6 30.09 1019 10 16 0.00 0.03
6:45 pm 18:45 Cloudy 47 8.3 43 6.1 86 86 SW 3 6 30.12 1020 8 13 0.00 0.03
6:53 pm 18:53 Cloudy 47 8.3 43 6.1 86 86 Calm 30.11 1020 7 11 0.00 0.03
7:04 pm 19:04 Cloudy 46 8 43 6 87 87 Calm 30.12 1020 7 11 0.00 0.00
7:53 pm 19:53 Cloudy with Light Rain 46 7.8 43 6.1 89 89 Calm 30.11 1020 4 6 0.01 0.25
8:50 pm 20:50 Cloudy with Light Rain 46 8 43 6 87 87 Calm 30.12 1020 3 4 0.00 0.00
8:53 pm 20:53 Cloudy with Light Rain 46 7.8 42 5.6 86 86 Calm 30.11 1020 3 4 0.03 0.76
9:12 pm 21:12 Cloudy with Light Rain 46 8 43 6 87 87 Calm 30.09 1019 3 5 0.00 0.00
9:19 pm 21:19 Cloudy with Light Rain 46 7.8 42 5.6 86 86 Calm 30.09 1019 3 5 0.01 0.25
9:35 pm 21:35 Cloudy with Light Rain 46 7.8 42 5.6 86 86 N 3 6 30.09 1019 4 6 0.02 0.51
9:45 pm 21:45 Cloudy with Light Rain 46 7.8 42 5.6 86 86 Calm 30.09 1019 3 5 0.02 0.51
9:53 pm 21:53 Cloudy with Light Rain 46 7.8 42 5.6 86 86 Calm 30.08 1019 3 5 0.03 0.76
10:10 pm 22:10 Cloudy with Light Rain 46 8 43 6 87 87 Calm 30.09 1019 3 4 0.00 0.00
10:21 pm 22:21 Cloudy with Light Rain 46 8 43 6 87 87 Calm 30.06 1018 3 5 0.00 0.00
10:33 pm 22:33 Cloudy with Light Rain 46 7.8 43 6.1 89 89 Calm 30.06 1018 3 4 0.02 0.51
10:36 pm 22:36 Cloudy with Light Rain 46 8 43 6 87 87 Calm 30.06 1018 3 5 0.00 0.00
10:40 pm 22:40 Cloudy with Light Rain 46 8 43 6 87 87 Calm 30.06 1018 3 4 0.00 0.00
10:53 pm 22:53 Cloudy with Light Rain 46 7.8 43 6.1 89 89 N 3 6 30.06 1018 3 4 0.03 0.76
11:01 pm 23:01 Cloudy with Light Rain 46 7.8 43 6.1 89 89 N 3 6 30.06 1018 3 5 0.00 0.03
11:37 pm 23:37 Cloudy with Light Rain 46 7.8 43 6.1 89 89 Calm 30.06 1018 3 5 0.02 0.51
11:53 pm 23:53 Cloudy with Mist and Fog 46 7.8 43 6.1 89 89 NW 5 7 30.03 1017 4 6 0.02 0.51

Powered by AerisWeather